{"data":{"norad_id":66543,"intl_designator":"2025-265AD","name":"STARLINK-35315","alt_names":[],"object_type":"PAYLOAD","status":"ACTIVE","operator":null,"country":"US","launch_date":"2025-11-19","launch_site_code":"AFETR","launch_vehicle":null,"mission":null,"orbit_class":"UNKNOWN","rcs_meters":null,"size_class":null,"mass_kg":null,"dimensions":null,"purposes":["comms"],"wikipedia_slug":null,"has_3d_model":false,"image_url":null,"decayed_at":null,"tle_current":{"epoch":"2026-09-20T16:34:34.340736Z","epoch_age_seconds":72805,"freshness":"FRESH","line1":"1 66543U 25265AD  26263.69067524  .00008237  00000+0  30839-3 0  9997","line2":"2 66543  42.9989 256.8969 0000500 287.3826  72.6970 15.27592416 46938","mean_motion":15.27592416,"eccentricity":5.0e-5,"inclination_deg":42.9989,"raan_deg":256.8969,"arg_perigee_deg":287.3826,"mean_anomaly_deg":72.697,"bstar":0.00030839,"rev_number":4693,"period_min":94.265982530251,"perigee_km":482.66886087492,"apogee_km":483.35497576675,"semimajor_km":6861.1489183208,"source":"CELESTRAK","updated_at":"2026-09-21T09:00:35.968953Z"}}}